This demonstration page uses our WeatherBlox Daily Observations layout. Learn more.

Left ArrowRight Arrow

39.12711, -84.51439

Hourly Observations for November 6, 2020

Temp ( °F °C ) Dew Point ( °F °C ) Humidity (%) Winds ( mph kmh ) Pressure ( in mb ) Visibility ( mi km ) Precip ( " mm )
12:43 am 00:43 Clear with Mist and Fog 41 5 39 3.9 93 93 Calm 30.32 1027 2 3 0.00 0.00
12:50 am 00:50 Clear with Mist and Fog 43 6 43 6 100 100 Calm 30.33 1027 3 5 0.00 0.00
12:53 am 00:53 Clear with Mist and Fog 43 6.1 42 5.6 97 97 Calm 30.30 1026 5 8 0.00 0.00
1:04 am 01:04 Clear with Mist and Fog 40 4.4 40 4.4 100 100 Calm 30.33 1027 2 3 0.00 0.00
1:12 am 01:12 Clear with Mist and Fog 42 5.6 41 5 96 96 Calm 30.33 1027 3 5 0.00 0.00
1:36 am 01:36 Clear with Mist and Fog 40 4.4 39 3.9 97 97 Calm 30.33 1027 2 3 0.00 0.00
1:50 am 01:50 Clear with Mist and Fog 41 5 39 4 93 93 Calm 30.33 1027 3 5 0.00 0.00
1:53 am 01:53 Clear with Mist and Fog 42 5.6 40 4.4 92 92 Calm 30.31 1026 3 5 0.00 0.00
1:57 am 01:57 Clear with Mist and Fog 42 5.6 41 5 96 96 Calm 30.33 1027 2 3 0.00 0.00
2:44 am 02:44 Clear with Mist and Fog 41 5 40 4.4 96 96 Calm 30.32 1027 3 5 0.00 0.00
2:53 am 02:53 Clear with Mist and Fog 39 3.9 37 2.8 93 93 Calm 30.30 1026 2 2 0.00 0.00
3:01 am 03:01 Clear with Mist and Fog 40 4.4 40 4.4 100 100 Calm 30.33 1027 3 5 0.00 0.00
3:23 am 03:23 Clear with Mist and Fog 40 4.4 39 3.9 97 97 Calm 30.33 1027 2 2 0.00 0.00
3:34 am 03:34 Clear with Mist and Fog 41 5 40 4.4 96 96 Calm 30.32 1027 4 6 0.00 0.00
3:43 am 03:43 Clear with Mist and Fog 38 3.3 38 3.3 100 100 Calm 30.32 1027 2 3 0.00 0.00
3:53 am 03:53 Clear with Mist and Fog 39 3.9 38 3.3 96 96 Calm 30.30 1026 1 1 0.00 0.00
4:13 am 04:13 Clear with Mist and Fog 40 4.4 38 3.3 93 93 Calm 30.32 1027 2 3 0.00 0.00
4:25 am 04:25 Mostly Clear with Mist and Fog 39 3.9 38 3.3 96 96 Calm 30.33 1027 1 2 0.00 0.00
4:28 am 04:28 Mostly Cloudy with Mist and Fog 39 3.9 38 3.3 96 96 Calm 30.33 1027 1 1 0.00 0.00
4:53 am 04:53 Mostly Cloudy with Mist and Fog 39 3.9 38 3.3 96 96 Calm 30.31 1026 1 2 0.00 0.00
5:00 am 05:00 Clear with Fog 39 3.9 38 3.3 96 96 Calm 30.33 1027 1 1 0.00 0.00
5:41 am 05:41 Clear with Mist and Fog 38 3.3 37 2.8 97 97 Calm 30.34 1027 1 2 0.00 0.00
5:53 am 05:53 Clear with Mist and Fog 38 3.3 37 2.8 97 97 Calm 30.32 1027 1 2 0.00 0.00
6:04 am 06:04 Clear with Fog 38 3.3 37 2.8 97 97 Calm 30.35 1028 1 1 0.00 0.00
6:25 am 06:25 Mostly Cloudy with Fog 38 3.3 37 2.8 97 97 Calm 30.34 1027 0 0 0.00 0.00
6:38 am 06:38 Clear with Fog 37 2.8 36 2.2 96 96 Calm 30.34 1028 1 1 0.00 0.00
6:53 am 06:53 Clear with Patchy Fog 37 2.8 36 2.2 96 96 Calm 30.32 1027 7 11 0.00 0.00
7:53 am 07:53 Sunny with Patchy Fog 38 3.3 38 3.3 100 100 Calm 30.35 1028 7 11 0.00 0.00
8:07 am 08:07 Sunny with Patchy Fog 37 2.8 37 2.8 100 100 Calm 30.37 1029 2 3 0.00 0.00
8:14 am 08:14 Sunny with Patchy Fog 38 3.3 38 3.3 100 100 Calm 30.37 1028 6 10 0.00 0.00
8:53 am 08:53 Sunny 44 6.7 44 6.7 100 100 Calm 30.35 1028 10 16 0.00 0.00
9:53 am 09:53 Sunny 52 11.1 47 8.3 83 83 Calm 30.35 1028 10 16 0.00 0.00
10:53 am 10:53 Sunny 59 15 48 8.9 67 67 Calm 30.35 1028 9 14 0.00 0.00
11:53 am 11:53 Sunny 65 18.3 47 8.3 52 52 Calm 30.33 1027 10 16 0.00 0.00
12:53 pm 12:53 Sunny 68 20 45 7.2 44 44 S 7 11 30.30 1026 10 16 0.00 0.00
1:53 pm 13:53 Sunny 70 21.1 43 6.1 38 38 SSW 9 15 30.27 1025 10 16 0.00 0.00
2:53 pm 14:53 Sunny 71 21.7 44 6.7 38 38 SSW 8 13 30.26 1025 10 16 0.00 0.00
3:53 pm 15:53 Sunny 70 21.1 44 6.7 39 39 S 5 7 30.25 1025 10 16 0.00 0.00
4:53 pm 16:53 Sunny 66 18.9 45 7.2 47 47 SSW 6 9 30.25 1025 10 16 0.00 0.00
5:53 pm 17:53 Clear 58 14.4 46 7.8 65 65 Calm 30.26 1025 10 16 0.00 0.00
6:53 pm 18:53 Clear 51 10.6 45 7.2 80 80 Calm 30.28 1025 10 16 0.00 0.00
7:53 pm 19:53 Clear 50 10 45 7.2 83 83 Calm 30.28 1026 10 16 0.00 0.00
8:53 pm 20:53 Clear 46 7.8 43 6.1 89 89 Calm 30.28 1025 9 14 0.00 0.00
9:53 pm 21:53 Clear with Mist and Fog 44 6.7 42 5.6 93 93 Calm 30.29 1026 6 10 0.00 0.00
10:41 pm 22:41 Clear with Mist and Fog 40 4.4 39 3.9 97 97 Calm 30.30 1026 1 1 0.00 0.00
10:51 pm 22:51 Clear with Mist and Fog 43 6 41 5 93 93 Calm 30.30 1026 6 10 0.00 0.00
10:53 pm 22:53 Clear with Mist and Fog 43 6.1 41 5 93 93 Calm 30.28 1025 6 10 0.00 0.00
11:53 pm 23:53 Clear with Mist and Fog 42 5.6 41 5 96 96 Calm 30.28 1025 3 5 0.00 0.00

Powered by AerisWeather